Miles City, MT

7:46 AM MDT on March 27, 2017 (GMT -0600)
Wiley

Weather History for KMLS - October, 2011

Change the Weather History Date:

Thursday, October 13, 2011

  Actual Average Record
Temperature  
Mean Temperature 51 °F 48 °F  
Max Temperature 61 °F 61 °F 84 °F (1964)
Min Temperature 40 °F 35 °F 21 °F (2006)
Degree Days  
Heating Degree Days 14 17  
Month to date heating degree days 92 193  
Since 1 July heating degree days 195 429  
Cooling Degree Days 0 0  
Month to date cooling degree days 33 0  
Year to date cooling degree days 763 728  
Moisture  
Dew Point 28 °F    
Average Humidity 46    
Maximum Humidity 70    
Minimum Humidity 22    
Precipitation  
Precipitation 0.00 in 0.03 in 0.84 in (1940)
Month to date precipitation 0.50 0.45  
Year to date precipitation 18.27 11.29  
Sea Level Pressure  
Sea Level Pressure 29.99 in    
Wind  
Wind Speed 14 mph (WNW)    
Max Wind Speed 30 mph    
Max Gust Speed 37 mph    
Visibility 10 miles    
Events      
T = Trace of Precipitation, MM = Missing Value Source: NWS Daily Summary

Daily Weather History Graph

Daily Weather History Graph

Search for Another Location

Airport or City:

Trip Planner

Search our weather history database for the weather conditions in past years. The results will help you decide how hot, cold, wet, or windy it might be!

Date:

Astronomy

Oct. 13, 2011 Rise Set
Actual Time 7:17 AM MDT 6:20 PM MDT
Civil Twilight 6:47 AM MDT 6:51 PM MDT
Nautical Twilight 6:12 AM MDT 7:26 PM MDT
Astronomical Twilight 5:37 AM MDT 8:00 PM MDT
Moon 6:47 PM MDT (10/13) 9:01 AM MDT (10/13)
Length of Visible Light 12h 03m
Length of Day
11h 03m
Full, 98% of the Moon is Illuminated
Oct 13
Full
Oct 19
Last Quarter
Oct 26
New
Nov 2
First Quarter
Nov 10
Full

Hourly Weather History & Observations

Time (MDT) Temp. Windchill Dew Point Humidity Pressure Visibility Wind Dir Wind Speed Gust Speed Precip Events Conditions
12:53 AM 48.0 °F - 30.9 °F 52% 29.96 in 10.0 mi West 6.9 mph - N/A   Mostly Cloudy
1:53 AM 46.0 °F 41.9 °F 30.9 °F 56% 29.96 in 10.0 mi West 8.1 mph - N/A   Partly Cloudy
2:53 AM 46.0 °F 43.1 °F 30.9 °F 56% 29.97 in 10.0 mi WNW 5.8 mph - N/A   Partly Cloudy
3:53 AM 45.0 °F - 32.0 °F 60% 29.98 in 10.0 mi Calm Calm - N/A   Mostly Cloudy
4:53 AM 44.1 °F 39.0 °F 32.0 °F 63% 29.99 in 10.0 mi WSW 9.2 mph - N/A   Clear
5:53 AM 46.0 °F 41.0 °F 30.9 °F 56% 29.98 in 10.0 mi WSW 10.4 mph - N/A   Clear
6:53 AM 46.0 °F 40.6 °F 30.0 °F 54% 29.99 in 10.0 mi West 11.5 mph - N/A   Clear
7:53 AM 44.6 °F 38.4 °F 30.2 °F 57% 29.98 in 10.0 mi West 12.7 mph - N/A   Clear
8:53 AM 48.9 °F - 30.0 °F 48% 29.99 in 10.0 mi West 13.8 mph 20.7 mph N/A   Clear
9:53 AM 51.8 °F - 30.2 °F 44% 29.99 in 10.0 mi WNW 15.0 mph - N/A   Clear
10:53 AM 55.9 °F - 28.0 °F 34% 29.99 in 10.0 mi WNW 16.1 mph 21.9 mph N/A   Clear
11:53 AM 59.0 °F - 25.0 °F 27% 29.98 in 10.0 mi WNW 19.6 mph 29.9 mph N/A   Clear
12:53 PM 60.1 °F - 25.0 °F 26% 29.96 in 10.0 mi NW 20.7 mph 28.8 mph N/A   Clear
1:53 PM 60.1 °F - 24.1 °F 25% 29.96 in 10.0 mi WNW 25.3 mph 32.2 mph N/A   Clear
2:53 PM 60.1 °F - 24.1 °F 25% 29.96 in 10.0 mi WNW 25.3 mph 33.4 mph N/A   Clear
3:53 PM 59.0 °F - 23.0 °F 25% 29.96 in 10.0 mi NW 18.4 mph 31.1 mph N/A   Clear
4:53 PM 57.9 °F - 21.0 °F 24% 29.96 in 10.0 mi NW 19.6 mph 27.6 mph N/A   Clear
5:53 PM 55.9 °F - 17.1 °F 22% 29.96 in 10.0 mi NW 21.9 mph 32.2 mph N/A   Clear
6:53 PM 53.1 °F - 19.9 °F 27% 29.98 in 10.0 mi NW 18.4 mph - N/A   Clear
7:53 PM 48.0 °F - 32.0 °F 54% 30.02 in 10.0 mi North 13.8 mph - N/A   Clear
8:53 PM 45.0 °F 39.3 °F 32.0 °F 60% 30.02 in 10.0 mi NNW 11.5 mph - N/A   Clear
9:53 PM 41.0 °F 37.1 °F 32.0 °F 70% 30.01 in 10.0 mi West 5.8 mph - N/A   Clear
10:53 PM 43.0 °F 38.8 °F 30.9 °F 62% 30.04 in 10.0 mi West 6.9 mph - N/A   Overcast
11:53 PM 42.1 °F 37.1 °F 30.9 °F 65% 30.05 in 10.0 mi West 8.1 mph - N/A   Overcast